Portada
METAR-TAF:

METAR-TAF

Aeroports :

Hyderabad, Índia

latitud: 17-27N, longitud: 078-28E, altitud: 530 m

Observació

L'informe es va fer fa 6 hores i 6 minuts, a les 15:30 UTC
Vent 3 kt amb direcció variable
Temperatura 27°C
Humitat 74%
Pressió 1019 hPa
Visibilitat: 5000 m
calitja

METAR: VOHY 191530Z VRB03KT 5000 HZ NSC 27/22 Q1019 NOSIG

Hora: 03:06 (21:36 UTC)


TAF: manca

Observacions i pronòstics meteorològics de més de 4000 aeroports (METAR i TAF).

Les estacions disponibles són els punts grocs i vermells al mapa.

Posi el ratolí al punt desitjat per veure el nom de l'estació.

Feu clic per veure les observacions i els pronòstics meteorològics.

Per canviar el mapa: feu clic els botons verds amb una creu de color negre per apropar; al botó verd amb un guió per allunyar la imatge; o en les fletxes verdes per a mapes adjacents.


METAR-TAF: